Flag for Saudi Arabia Weather past 2 weeks in Jeddah, Saudi Arabia

Now
95 °F

Sunny.


Feels Like: 105 °F
Forecast: 82 / 95 °F
Wind: 14 mph from Southwest

Location: Jeddah King Abdul Aziz International Airport

Current Time: Sep 30, 2014 at 2:35:50 PM

Latest Report: Sep 30, 2014 at 2:00 PM


Visibility: 10 mi

Pressure: 29.71 "Hg

Humidity: 50%

Dew point: 73 °F

Location of JeddahLocation

Historic Weather in Jeddah — Graph

°F

Jeddah temperature yesterday

Maximum temperature yesterday: 97 °F (at 11:00 AM)
Minimum temperature yesterday: 81 °F (at 6:00 AM)
Average temperature yesterday: 90 °F

Past Weeks' High & Low Weather Summary

 TemperatureHumidityPressure
High100 °F (Sep 18, 1:00 PM)94% (Sep 25, 7:00 AM)29.80 "Hg (Sep 25, 7:00 AM)
Low81 °F (Sep 21, 5:00 AM)29% (Sep 17, 12:00 PM)29.65 "Hg (Sep 16, 5:00 PM)
Average89 °F58%29.71 "Hg
* Reported Sep 15 1:00 PM — Sep 30 1:00 PM, Jeddah, Weather by CustomWeather, © 2014

Note: Actual official high and low records may vary slightly from our data, if they occured in-between our weather recording intervals... More about our weather records

Advertising

Jeddah weather history for previous 24 hours

 ConditionsComfort  
Time TempWeatherWind HumidityBarometerVisibility
1:00 PM
Sep 30
97 °FSunny.14 mph50%29.71 "Hg10 mi
12:00 PM100 °FSunny.6 mph37%29.74 "Hg10 mi
11:00 AM97 °FSunny.12 mph42%29.74 "Hg10 mi
10:00 AM93 °FSunny.9 mph49%29.77 "Hg10 mi
9:00 AM90 °FSunny.7 mph63%29.77 "Hg10 mi
8:00 AM86 °FSunny.5 mph70%29.74 "Hg10 mi
7:00 AM84 °FSunny.5 mph74%29.74 "Hg10 mi
6:00 AM84 °FClear.9 mph74%29.74 "Hg10 mi
5:00 AM84 °FClear.5 mph74%29.71 "Hg10 mi
4:00 AM84 °FClear.5 mph74%29.74 "Hg10 mi
3:00 AM86 °FClear.5 mph70%29.74 "Hg10 mi
2:00 AM86 °FClear.5 mph66%29.71 "Hg10 mi
1:00 AM86 °FClear.5 mph66%29.74 "Hg10 mi
12:00 AM88 °FClear.5 mph62%29.74 "Hg10 mi
11:00 PM
Sep 29
88 °FClear.5 mph62%29.74 "Hg10 mi
10:00 PM90 °FClear.6 mph63%29.77 "Hg10 mi
9:00 PM90 °FClear.14 mph63%29.77 "Hg10 mi
8:00 PM90 °FClear.14 mph63%29.74 "Hg10 mi
7:00 PM90 °FClear.16 mph59%29.74 "Hg10 mi
6:00 PM91 °FSunny.14 mph56%29.71 "Hg10 mi
5:00 PM93 °FSunny.17 mph53%29.71 "Hg10 mi
4:00 PM95 °FSunny.16 mph44%29.71 "Hg10 mi
3:00 PM95 °FSunny.14 mph44%29.74 "Hg10 mi
2:00 PM95 °FSunny.14 mph44%29.74 "Hg10 mi
Weather by CustomWeather, © 2014

See weather overviewHow to use our weather pages